Miscellaneous Local Product
Issued by NWS Hastings, NE

Home | Current Version | Previous Version | Graphics & Text | Print | Product List | Glossary On
Versions: 1 2 3 4 5 6 7 8 9 10 11 12 13 14 15 16 17 18 19 20 21 22 23 24 25 26 27 28 29 30 31 32 33 34 35 36 37 38 39 40 41 42 43 44 45 46 47 48 49 50
000
AXUS43 KGID 261602
MISGRI

GID CWA HOURLY WEATHER ROUNDUP
NATIONAL WEATHER SERVICE HASTINGS NE
1100 AM CDT SUN APR 26 2015

NOTE: "FAIR" INDICATES FEW OR NO CLOUDS BELOW 12,000 FEET WITH NO
SIGNIFICANT WEATHER AND/OR OBSTRUCTIONS TO VISIBILITY.

...SOUTH CENTRAL NEBRASKA...

CITY           SKY/WX    TMP DP  RH WIND       PRES   REMARKS
GRAND ISLAND   PTSUNNY   51  40  65 E15G25    30.01F
HASTINGS       CLOUDY    50  41  71 E18       29.98F
KEARNEY        CLOUDY    48  39  71 E18       29.99S
ORD            MOSUNNY   51  38  60 E14G21    30.01R
YORK           MOSUNNY   52  43  71 E15       30.03R
AURORA         MOSUNNY   50  42  74 E17       30.01S
LEXINGTON      CLOUDY    45  42  90 E14       29.99R
HOLDREGE       CLOUDY    44  41  90 E17       29.98R FOG
HEBRON         CLOUDY    48  42  79 E8        30.00S

...NEBRASKA PANHANDLE...

CITY           SKY/WX    TMP DP  RH WIND       PRES   REMARKS
CHADRON        CLOUDY    48  45  89 E9        29.93R FOG
ALLIANCE       CLOUDY    43  42  97 SE16      29.94R FOG
SCOTTSBLUFF    LGT RAIN  45  32  60 SE15G23   29.92R
SIDNEY         FOG       42  41  96 SE15      29.93R VSB 1/2

...WESTERN AND NORTH CENTRAL NEBRASKA...

CITY           SKY/WX    TMP DP  RH WIND       PRES   REMARKS
VALENTINE      CLOUDY    48  37  65 SE17      30.02R
AINSWORTH      CLOUDY    46  39  75 SE14      30.03S
ONEILL         MOSUNNY   54  39  58 E9G16     30.05R
BROKEN BOW     CLOUDY    47  39  74 E17G26    30.00R
IMPERIAL       CLOUDY    43  41  93 E17       29.94R FOG
NORTH PLATTE   NOT AVBL
MCCOOK         CLOUDY    45  42  89 E13       29.96R FOG

...EASTERN NEBRASKA...

CITY           SKY/WX    TMP DP  RH WIND       PRES   REMARKS
NORFOLK        SUNNY     53  32  44 E16G24    30.05R
SO SIOUX CITY  SUNNY     56  35  45 E12       30.08S
TEKAMAH        SUNNY     56  37  49 E14       30.07R
COLUMBUS       MOSUNNY   52  37  58 E15G21    30.07R
ALBION         SUNNY     52  38  60 E15G21    30.04S
OMAHA EPPLEY   PTSUNNY   52  40  63 E14       30.06R
OFFUTT AFB     PTSUNNY   54  41  62 NE12      30.05R
MILLARD        PTSUNNY   51  40  65 NE7       30.06R
LINCOLN        MOSUNNY   52  40  63 E16       30.05R
NEBRASKA CITY  MOSUNNY   52  38  60 E15       30.03S
BEATRICE       CLOUDY    48  42  78 NE13      30.02R
FALLS CITY     CLOUDY    49  41  74 E10       30.02R

...NORTHERN KANSAS...

CITY           SKY/WX    TMP DP  RH WIND       PRES   REMARKS
GOODLAND       CLOUDY    43  42  97 E17       29.91F
HILL CITY      CLOUDY    48  43  82 E16       29.94S
NORTON         CLOUDY    45  41  87 E6        29.96R
PHILLIPSBURG   CLOUDY    50  46  87 NE18      29.96R
SMITH CENTER   CLOUDY    46  43  87 E20G26    29.96R
HAYS           CLOUDY    48  39  71 E16       29.92R
RUSSELL        LGT RAIN  48  47  96 NE18      29.90S FOG
CONCORDIA      CLOUDY    48  44  86 NE13      29.97R
SALINA         CLOUDY    50  47  89 NE10      29.94R
TOPEKA         CLOUDY    51  44  77 E12       29.98R



USA.gov is the U.S. government's official web portal to all federal, state and local government web resources and services.